Theta_e
313 313 313 314 313 314 315 317 319 319 319 319 319 318 317 317 316 315 315 315 317 319 320 318 317 316 317 316 315 315 315 315 314 314 314 314 315 315 316 316 317 319 318 317 316 315 315 316 316 315 316 317 318 319 318 318 317 320 331 335 324 324 323 319 319 315 316 322 313 308 311 313 313 309 307 309 308 308 307 307 308 308 308 308 308 308 308 306
313 313 313 313 313 314 314 316 317 318 319 319 318 318 317 317 316 316 315 315 315 317 320 319 317 316 317 316 315 315 314 314 314 314 315 315 315 316 317 317 319 320 319 319 318 316 316 315 315 314 316 318 317 319 318 317 316 320 330 327 321 327 322 314 315 311 312 317 312 309 310 311 313 310 308 310 307 305 307 306 305 306 307 307 307 306 307 306
312 313 313 312 313 313 313 314 316 317 318 318 318 318 318 317 316 316 316 315 314 316 318 319 319 317 317 317 315 315 315 315 314 314 315 315 316 317 317 318 320 320 319 320 319 317 316 314 315 314 315 317 317 318 318 317 316 315 320 323 324 325 317 311 312 312 312 313 311 310 310 309 311 310 309 309 306 304 306 307 304 305 306 306 306 306 306 305
312 312 312 312 312 312 313 313 314 316 317 318 318 318 318 318 317 317 316 315 314 315 317 318 319 318 317 317 317 316 317 318 316 314 315 315 317 317 317 318 319 320 319 319 319 318 317 316 317 315 314 315 315 317 317 316 316 314 317 321 320 314 314 314 312 312 312 312 311 310 310 310 309 310 309 307 308 307 306 308 309 309 309 307 307 306 305 305
312 312 312 311 312 312 312 312 312 314 315 316 317 317 317 317 317 317 317 316 315 315 316 317 318 319 317 317 317 316 318 320 317 314 315 316 317 318 317 318 319 319 319 319 319 318 318 318 317 315 315 316 316 317 316 314 314 315 314 314 312 310 314 315 313 313 313 312 311 310 311 312 310 309 308 308 312 312 309 311 312 311 311 310 309 307 305 304
312 312 312 311 311 311 311 311 311 312 313 313 315 316 316 317 317 317 317 316 315 315 315 315 316 318 319 317 317 316 318 321 317 314 314 316 317 318 317 317 318 319 318 319 318 318 319 318 318 315 314 316 315 316 315 312 313 316 313 310 311 311 313 314 313 314 313 312 311 310 312 311 308 309 309 307 311 312 311 312 311 310 310 309 309 307 305 303
311 311 311 311 311 311 311 311 311 311 311 311 312 314 315 315 316 316 316 316 316 315 315 315 315 318 319 318 318 317 318 319 317 315 314 315 317 317 317 317 318 318 318 318 318 319 319 319 317 313 314 316 314 314 314 312 312 316 315 311 312 311 311 313 313 313 313 313 312 311 311 309 309 311 309 307 311 312 311 311 311 310 308 307 307 306 305 304
311 311 311 311 310 311 310 311 310 310 310 310 311 312 313 314 314 315 315 315 315 315 315 315 315 316 318 318 318 318 318 318 317 316 314 315 316 317 317 317 318 318 318 318 318 319 319 319 317 313 313 314 314 314 313 312 313 315 315 311 311 312 312 313 313 313 313 312 311 310 310 309 310 310 306 308 311 311 310 310 310 310 308 306 306 306 305 303
311 311 311 311 310 310 310 310 310 310 310 310 310 310 311 312 313 313 313 314 313 314 315 315 315 315 317 318 318 319 320 319 317 315 314 315 316 316 316 316 317 318 317 318 318 318 319 318 316 314 313 312 314 313 311 313 313 312 313 311 311 312 312 313 313 313 312 312 310 309 309 309 309 308 307 309 311 310 309 309 309 309 307 306 305 305 304 302
311 311 310 311 310 310 310 310 310 310 310 310 310 310 310 311 311 311 312 312 312 313 314 315 315 314 316 317 318 319 319 318 318 316 314 314 315 316 316 316 316 317 317 317 317 317 318 318 316 314 314 313 313 311 311 312 313 311 311 311 310 310 311 311 312 312 311 311 309 310 310 308 306 307 309 309 309 309 308 308 308 308 307 306 305 304 303 302
311 310 310 310 310 310 310 310 310 310 310 310 310 310 310 310 311 311 311 311 311 312 313 316 315 314 316 317 317 317 317 318 319 317 315 314 315 316 316 316 316 317 317 317 317 316 316 317 317 315 315 315 313 311 310 310 311 310 309 311 309 308 309 309 310 310 310 310 309 309 309 307 305 307 310 308 308 309 307 307 307 306 306 305 304 303 302 302
310 310 310 310 310 310 310 310 310 310 310 310 310 310 310 310 310 310 310 310 311 311 313 316 315 314 316 317 317 316 317 317 318 318 316 314 314 315 316 316 316 316 316 316 315 315 315 316 316 315 315 314 313 311 311 311 310 309 310 313 313 314 314 308 309 309 308 311 309 308 311 310 308 309 309 308 308 307 306 306 306 305 305 304 303 303 302 301
310 310 310 310 310 310 310 310 310 310 310 310 310 310 310 310 310 310 310 310 310 311 313 315 315 314 315 317 317 316 317 317 318 318 316 315 314 315 315 315 315 315 316 316 315 315 314 315 315 315 314 312 312 312 311 310 309 311 309 312 317 322 321 309 307 308 307 311 309 309 315 315 313 310 308 308 307 306 304 304 305 304 303 303 303 302 302 301
310 310 310 310 310 310 310 310 310 310 310 310 310 310 310 310 310 311 310 310 310 311 313 315 315 315 315 316 316 316 317 317 317 317 316 315 314 315 315 315 315 315 316 315 315 315 313 315 315 314 314 312 311 310 313 313 313 314 310 316 321 319 325 315 306 308 310 310 308 309 315 315 315 312 308 307 306 306 304 303 304 303 303 302 302 302 302 301
310 310 310 310 310 310 310 310 310 310 310 310 310 310 310 310 310 310 310 311 310 312 313 314 315 315 316 316 316 317 317 317 317 317 316 315 314 314 314 315 315 314 315 315 315 315 313 315 314 314 313 312 313 314 319 322 322 320 313 323 326 316 326 322 305 306 312 311 307 310 315 314 313 310 308 307 305 305 304 303 304 303 303 302 301 301 301 301
310 310 310 310 310 310 310 310 310 310 310 310 310 310 310 310 310 310 311 311 311 312 311 313 315 316 316 316 316 316 317 317 317 316 315 315 314 314 314 315 315 315 315 314 315 315 314 315 314 313 311 310 317 322 323 325 329 325 316 321 327 319 320 319 308 304 307 310 309 309 314 315 313 308 306 306 304 304 303 302 302 303 302 302 301 301 300 300
310 310 310 310 310 310 310 310 310 310 310 310 310 311 310 310 310 310 311 311 311 311 311 314 316 316 317 317 316 316 317 316 316 316 315 314 314 314 314 315 315 314 314 314 315 314 314 315 313 312 312 310 317 325 323 326 332 329 320 318 323 319 314 316 314 307 304 310 312 310 311 312 312 308 305 305 304 303 300 300 302 302 301 300 300 300 299 299
310 310 310 310 310 310 310 310 310 310 310 310 310 310 310 310 311 310 311 311 311 312 313 316 316 317 318 316 317 317 317 317 315 315 314 314 314 314 315 314 315 314 314 314 314 316 315 313 313 318 320 316 319 324 323 327 329 323 321 319 318 316 312 313 315 309 306 310 312 311 311 310 310 309 306 306 305 302 300 301 303 301 300 299 299 299 299 299
310 311 310 310 309 309 309 310 309 309 310 310 309 310 310 310 310 310 312 313 314 315 315 316 317 319 318 314 315 315 316 316 315 315 315 315 314 314 315 314 314 313 313 316 317 315 313 312 315 320 324 322 321 321 322 329 326 317 318 318 316 315 312 312 312 308 305 309 310 309 310 309 309 309 307 306 305 302 301 301 301 300 299 298 298 299 299 299
310 311 310 310 309 309 309 309 309 309 309 309 309 309 309 310 311 313 313 313 314 315 314 314 314 315 315 314 314 314 315 315 315 316 315 315 315 314 315 313 314 314 315 321 322 313 311 316 319 320 322 322 322 318 317 321 317 312 315 314 313 313 311 310 311 307 303 307 311 309 308 308 307 308 307 305 304 300 299 298 299 299 299 298 298 299 299 299
311 311 310 310 309 309 309 309 309 309 308 308 308 308 309 310 313 314 311 311 312 312 312 312 312 312 313 313 315 315 314 314 314 315 315 315 315 314 314 313 314 317 315 314 316 312 312 317 321 326 322 317 318 314 311 313 310 310 312 312 312 312 311 309 308 308 304 306 312 311 309 308 306 307 307 306 305 302 299 298 299 299 299 299 299 299 299 299
310 311 310 310 310 309 309 308 309 308 308 308 308 308 310 311 312 312 311 312 312 311 311 311 311 312 311 311 313 314 314 314 314 314 315 314 315 314 313 314 317 320 315 310 314 318 317 319 323 322 312 308 311 309 309 311 310 311 311 311 313 312 313 312 309 309 307 306 311 312 309 308 307 307 307 307 307 305 303 303 303 302 300 300 300 299 299 298
307 309 309 309 310 309 309 309 308 308 308 308 308 308 310 311 312 311 312 313 313 311 311 312 312 311 312 312 312 313 313 314 314 314 315 313 314 314 312 313 318 321 316 315 320 321 322 324 318 308 304 309 312 308 309 311 310 313 311 312 314 312 314 317 312 310 310 307 308 310 308 307 308 307 308 307 305 306 306 305 306 304 303 302 302 301 300 298
305 306 307 308 309 308 308 308 308 308 308 308 308 309 311 312 312 312 312 312 314 313 311 312 312 312 313 312 312 313 313 313 314 313 314 313 313 313 311 312 317 319 317 318 320 320 323 318 306 302 307 312 312 309 310 311 313 317 314 312 314 313 312 314 313 310 311 310 306 309 311 313 313 310 310 307 303 304 305 304 305 303 304 304 303 302 301 300
306 305 305 305 306 307 307 308 308 308 308 308 308 310 312 313 312 312 312 311 313 314 312 312 313 313 314 314 314 313 313 314 314 314 314 313 313 312 311 311 314 319 319 317 317 318 319 309 303 308 310 310 312 313 314 314 315 320 319 314 312 313 311 311 313 311 315 316 308 309 315 318 316 313 313 310 307 307 305 304 304 302 303 303 302 302 301 300
306 306 305 304 305 305 306 308 308 308 309 309 309 310 312 312 312 313 313 312 313 315 314 314 315 316 314 314 314 313 315 316 313 314 313 312 313 311 313 312 311 316 317 315 315 318 315 306 307 314 313 310 311 313 316 314 314 317 317 313 311 311 310 311 312 311 317 318 308 309 317 316 313 315 316 314 312 312 308 307 305 302 302 302 303 303 301 300
306 307 306 305 304 304 305 308 309 309 310 310 312 311 312 312 311 311 310 310 311 315 317 315 314 316 315 314 313 313 319 318 311 312 312 312 312 310 314 315 311 312 309 310 316 317 311 308 310 314 314 314 313 316 317 313 316 319 313 312 313 311 311 311 309 309 313 312 307 308 313 313 312 313 313 311 311 311 309 309 306 302 302 303 304 304 302 301
307 308 307 306 305 304 305 307 309 309 310 312 312 311 311 312 311 311 310 308 311 315 318 316 314 315 315 314 312 312 314 313 312 312 310 311 312 310 314 316 316 315 307 310 321 316 309 312 314 314 315 315 316 321 317 312 317 317 309 309 311 309 310 310 308 308 309 309 309 308 307 311 313 312 309 306 309 312 311 312 310 305 304 304 304 304 302 302
307 309 308 307 306 304 304 306 308 309 310 311 311 312 311 311 310 310 309 308 312 318 316 315 315 314 313 313 312 311 310 310 312 311 309 310 311 310 312 311 312 314 307 309 320 316 309 310 310 313 318 316 316 314 309 312 315 309 305 309 311 310 310 310 309 310 311 313 315 311 308 312 317 314 309 306 309 314 314 313 311 305 303 304 305 304 303 302
307 309 309 307 306 305 305 307 308 309 310 310 311 312 310 311 312 309 308 309 313 317 313 313 315 313 312 314 314 311 310 311 309 308 308 309 310 309 310 310 308 313 315 313 317 314 307 304 304 310 312 311 312 306 301 307 307 302 307 313 315 314 310 309 311 312 315 317 316 312 308 311 317 314 310 310 312 316 316 313 312 307 304 306 306 305 304 302
307 308 309 308 307 306 307 309 309 309 309 310 312 311 310 314 316 312 309 308 310 314 313 314 314 313 315 318 319 313 310 311 308 307 309 308 309 309 309 311 310 316 323 319 317 314 308 307 308 308 305 305 310 308 302 302 301 305 314 317 317 318 315 315 315 314 317 318 314 310 306 308 314 313 310 312 312 312 315 317 319 314 307 306 307 306 304 303
307 307 309 309 307 307 308 310 310 309 309 310 311 311 312 314 314 312 310 309 310 314 317 318 314 314 316 316 318 315 312 313 308 307 311 310 311 311 311 315 316 318 323 320 318 318 315 314 309 306 304 305 313 315 308 305 306 309 315 317 318 320 320 321 320 316 319 318 310 306 307 307 310 311 310 312 312 311 310 310 313 311 305 305 305 305 304 303
308 308 310 310 308 307 308 310 311 310 310 311 310 311 314 313 310 310 311 311 311 313 316 319 315 315 316 316 320 316 313 316 311 307 310 310 310 312 312 316 317 316 319 317 316 318 319 315 308 308 308 306 311 315 313 313 310 308 313 317 319 320 323 324 321 315 316 317 308 303 307 310 310 312 311 310 310 310 306 303 306 306 304 304 303 303 303 302
309 310 312 311 309 308 309 311 312 311 310 311 310 312 315 312 309 311 313 311 311 313 315 317 315 314 315 317 321 317 314 317 314 309 311 311 311 314 314 314 313 315 319 316 315 318 319 317 313 313 312 308 309 311 315 317 310 307 313 316 317 323 325 324 323 319 316 319 311 304 309 315 313 312 310 308 306 305 304 304 305 305 302 301 300 301 302 301
309 310 312 311 309 308 309 311 312 310 308 308 310 313 312 310 311 314 313 311 312 315 316 315 315 316 316 318 320 316 314 316 314 311 313 313 314 317 317 314 311 315 320 317 318 318 315 317 315 308 305 307 307 306 309 315 312 308 310 313 315 320 320 317 319 318 314 316 313 308 311 314 310 309 308 306 304 301 300 300 301 301 299 299 299 300 301 301
309 310 310 310 309 307 308 310 312 309 306 307 311 312 310 309 315 316 312 312 314 318 317 315 317 317 318 320 320 316 312 313 314 313 314 313 315 316 318 317 311 311 315 316 319 318 315 317 312 303 303 303 303 303 304 310 314 309 308 313 313 312 315 319 316 311 310 313 314 312 312 311 309 310 307 304 306 303 299 298 297 296 296 298 299 300 301 300
311 311 311 311 309 307 308 309 311 310 305 306 311 312 310 310 313 314 312 310 312 317 318 315 315 318 321 321 320 317 314 313 313 314 316 315 315 315 315 316 311 309 312 314 317 319 316 316 311 306 310 304 297 300 301 302 307 311 312 312 308 307 312 316 316 314 312 313 315 313 312 309 310 310 305 304 309 309 306 304 299 294 294 296 299 301 301 300
312 312 312 312 310 309 309 309 312 312 307 305 310 313 313 311 308 308 310 310 311 316 317 313 312 316 321 321 320 318 315 315 315 315 318 316 315 315 314 314 312 308 310 311 315 318 314 314 313 306 308 304 297 302 306 301 300 307 309 306 307 312 313 311 313 316 315 314 316 316 312 309 310 311 309 308 309 310 310 308 301 297 294 294 298 301 300 299
312 313 312 312 311 310 309 309 312 313 308 305 308 311 312 312 307 305 309 311 312 315 315 313 311 312 317 320 321 318 314 315 316 314 317 316 315 314 312 314 314 308 307 309 314 316 312 314 316 305 301 304 303 306 312 307 300 301 303 302 306 312 313 312 311 313 315 314 314 314 311 310 313 315 315 313 310 310 312 310 305 300 295 295 300 302 300 300
312 313 312 311 310 308 308 310 312 312 310 308 308 308 309 311 308 307 309 310 312 313 313 315 313 310 314 317 318 318 315 315 315 314 316 316 314 314 311 312 315 309 306 308 312 314 312 313 315 308 301 304 307 308 310 310 305 303 305 305 305 305 309 311 309 309 313 313 314 315 312 311 313 315 316 315 312 312 312 313 310 301 295 298 303 303 302 301
312 312 312 311 308 308 309 311 311 311 312 312 311 310 309 310 310 309 309 308 310 310 311 317 317 312 313 314 314 316 316 315 314 313 315 316 314 315 311 310 312 310 308 309 311 313 314 314 314 313 308 307 309 307 305 308 308 306 308 308 306 305 309 312 310 308 309 311 315 316 313 310 311 313 316 315 315 314 311 312 311 300 296 302 306 305 304 303
313 313 313 311 308 308 309 311 312 311 313 314 313 312 311 310 311 311 309 308 308 308 309 314 317 314 313 313 314 315 316 318 316 313 315 316 314 313 311 308 308 308 310 313 312 310 313 314 313 313 313 309 306 302 299 302 305 305 307 308 307 306 309 312 311 309 309 309 310 311 312 312 310 313 317 316 314 311 305 304 304 298 299 306 306 305 305 303
314 313 313 311 308 308 310 311 311 311 313 314 313 312 312 311 311 311 310 309 309 309 309 310 311 311 311 312 314 315 315 316 317 315 315 317 314 311 309 308 307 309 311 313 311 308 310 314 313 312 314 312 306 301 299 300 302 306 308 307 306 306 307 310 310 310 312 310 308 309 310 310 311 313 314 310 305 301 297 297 298 297 300 305 305 304 304 302
314 313 312 310 309 309 310 310 310 311 312 313 313 313 312 312 312 311 311 310 310 310 310 309 309 309 310 312 312 313 312 312 314 314 314 317 315 310 307 307 308 311 312 312 312 310 311 315 314 311 314 314 310 306 305 303 302 306 308 306 305 306 306 308 307 307 310 310 308 310 310 310 311 310 306 303 302 301 298 295 296 297 299 303 303 303 303 301
314 313 311 310 309 309 310 310 309 309 310 311 312 312 312 312 311 311 311 310 309 310 310 310 309 308 310 312 311 311 311 311 311 311 312 314 312 306 305 307 309 309 310 309 309 309 313 315 313 311 312 311 310 310 311 309 304 304 306 305 304 305 306 307 308 307 308 308 308 309 310 310 311 308 305 305 305 304 300 295 294 296 299 300 301 301 301 300
314 313 310 308 308 309 309 309 308 308 309 310 311 311 311 311 310 310 311 310 309 309 309 310 309 308 310 311 309 310 310 310 310 311 312 315 313 306 302 304 307 306 307 307 306 310 316 316 312 311 311 310 309 309 311 311 308 307 308 306 304 304 305 306 308 308 308 308 308 308 309 309 310 309 308 308 306 305 304 300 296 295 297 299 299 300 300 299
314 314 312 309 308 309 309 309 309 308 308 309 310 310 310 310 310 309 309 310 310 309 309 309 309 309 310 310 309 309 309 309 310 310 310 312 313 307 301 301 303 304 304 305 305 310 317 314 310 311 310 310 310 310 310 312 311 309 308 307 305 304 304 305 307 308 308 308 308 308 309 309 309 309 309 309 308 307 307 307 302 298 299 301 300 299 298 296
314 314 312 311 311 310 309 309 310 309 309 308 309 310 310 310 310 309 309 310 309 309 310 310 310 310 310 310 310 309 309 310 310 310 310 310 310 308 305 303 301 301 304 305 304 307 313 312 310 311 310 309 310 309 310 310 309 308 308 308 306 304 304 305 305 306 307 308 308 308 308 309 309 309 308 309 309 308 308 308 306 304 303 302 300 298 296 295
314 313 312 312 312 312 310 309 309 310 310 309 308 309 309 309 309 309 310 310 309 309 310 310 311 310 310 310 310 310 310 310 310 310 310 310 310 310 309 308 303 299 302 306 305 305 309 310 310 310 310 310 310 309 309 308 307 308 308 307 307 305 304 304 304 305 306 306 307 307 308 309 308 308 309 308 308 308 307 307 306 304 303 301 299 297 296 295
314 313 312 312 312 312 310 309 309 310 310 310 309 309 308 309 309 308 309 310 310 309 309 310 310 309 310 311 310 310 310 309 310 311 311 311 311 310 310 312 310 303 301 305 306 305 306 310 312 311 310 311 310 309 310 309 308 308 308 307 307 306 305 304 304 304 305 305 305 306 307 307 307 308 308 308 307 307 306 306 305 304 303 301 298 297 297 296
316 315 313 312 312 312 311 311 310 310 310 310 310 310 309 309 309 309 308 308 308 309 309 309 310 309 310 310 310 310 310 310 310 310 310 311 311 311 311 311 312 309 304 304 307 306 306 309 312 312 311 311 311 311 311 309 308 308 308 308 308 307 307 306 306 305 305 305 305 306 306 306 307 307 307 307 306 306 306 305 304 304 305 302 299 298 298 298
316 315 314 312 312 312 312 312 311 310 310 310 310 310 310 310 310 309 309 308 307 308 308 309 310 310 310 309 310 309 309 309 310 309 308 309 308 309 309 308 309 311 308 305 305 306 307 308 310 310 310 310 311 311 310 309 309 309 310 309 308 308 308 308 308 307 306 306 306 306 307 307 307 307 307 307 307 307 307 305 304 304 304 303 301 300 300 300
Wind_Speed
8 9 9 9 9 9 9 10 11 12 12 13 14 15 15 16 17 18 18 16 14 13 11 7 2 1 3 5 6 7 7 7 7 4 4 6 8 8 8 9 10 11 11 11 10 9 7 5 4 5 5 1 2 2 3 5 4 2 2 4 1 3 4 5 8 7 4 3 6 12 14 8 5 10 10 6 7 9 13 15 12 15 16 12 12 14 22 27
8 8 8 8 8 8 8 8 9 10 11 11 12 13 14 15 16 18 18 17 14 12 11 8 4 2 1 2 4 5 6 5 5 4 4 5 6 6 7 7 8 9 10 10 9 10 8 5 5 5 3 1 2 3 3 4 5 3 3 3 2 5 4 4 7 8 2 2 10 12 12 10 7 12 14 6 5 9 9 11 11 12 15 14 16 19 24 26
9 9 9 8 8 8 8 8 8 9 10 10 11 12 14 14 15 16 18 18 15 11 10 9 6 3 3 2 3 4 4 3 3 3 4 3 4 5 5 6 7 8 9 10 9 10 10 8 9 6 1 2 3 3 4 6 4 1 3 3 5 6 4 4 5 9 4 2 10 9 8 9 7 11 14 7 6 7 9 13 13 15 19 20 21 24 26 25
11 10 10 10 9 8 8 7 7 8 9 10 10 11 12 14 14 15 17 17 16 13 10 9 7 5 4 5 4 4 3 1 4 4 3 2 3 4 4 4 5 7 8 9 10 11 10 10 10 5 1 3 4 3 3 7 4 0 3 3 5 4 2 5 5 6 5 3 8 7 4 6 7 12 13 9 6 4 14 24 23 22 25 26 26 27 28 27
11 11 11 11 11 10 10 9 8 8 9 10 11 11 11 12 13 13 15 16 16 14 11 10 8 5 5 5 6 6 3 1 4 6 3 2 2 2 2 3 4 6 8 8 10 10 9 10 8 4 3 3 5 4 3 7 4 1 1 2 4 6 1 6 5 5 6 4 6 7 4 7 8 11 16 16 9 9 17 25 28 27 24 25 27 29 29 28
12 12 12 12 12 12 11 11 10 10 9 10 10 11 11 11 13 13 13 14 15 14 12 12 10 6 5 5 6 7 4 1 4 7 4 3 1 1 1 1 2 5 7 7 8 9 9 11 9 3 3 4 4 3 3 6 3 1 1 2 3 7 2 5 7 6 7 7 8 8 8 9 10 9 17 22 20 19 17 15 20 24 22 23 26 29 29 28
12 12 12 12 12 12 12 12 12 11 11 10 10 11 12 12 12 12 12 13 13 14 13 13 12 7 5 5 5 7 7 5 5 8 6 4 3 1 1 1 0 3 5 6 6 7 9 12 11 5 3 3 1 1 4 6 2 2 1 1 3 7 5 5 9 8 9 10 10 9 9 11 12 8 10 23 30 28 22 14 14 21 22 24 27 28 28 26
13 12 13 12 12 12 12 13 12 12 12 11 10 11 12 12 12 13 12 13 13 13 13 12 12 9 5 5 6 7 9 8 6 8 8 6 4 2 2 3 1 2 4 4 5 6 10 13 11 6 2 2 1 1 4 5 2 4 1 1 2 5 5 7 10 10 12 13 11 9 9 11 15 9 7 21 29 27 27 21 15 19 24 27 29 28 26 26
13 13 13 13 13 13 13 13 13 12 12 11 11 10 12 13 13 13 13 13 13 13 13 11 12 11 7 6 6 6 7 6 7 9 9 8 5 4 4 4 3 2 4 4 4 4 8 11 10 6 1 2 2 1 3 3 2 1 1 3 2 4 5 7 11 12 13 13 10 9 8 9 13 8 11 25 27 23 25 21 17 20 26 29 29 28 27 26
15 15 15 14 14 14 13 13 13 13 13 12 11 10 11 12 13 14 13 13 13 13 13 10 10 11 8 7 5 4 5 5 7 10 10 9 7 6 5 5 4 4 4 5 4 2 6 8 8 6 2 3 2 1 2 2 1 2 3 5 5 6 7 8 11 12 11 11 11 10 6 5 6 3 9 18 19 21 23 19 19 23 27 30 29 28 27 26
18 17 17 17 16 16 15 14 14 14 14 13 12 11 11 12 13 14 14 14 14 14 12 10 10 11 9 8 7 5 6 6 6 10 11 11 9 8 7 5 5 5 5 5 5 3 3 6 7 5 1 0 2 1 1 1 2 4 4 6 7 6 6 7 8 10 7 7 11 10 4 2 4 3 10 12 13 19 22 22 23 26 29 30 29 28 27 27
19 19 19 18 18 18 17 17 16 15 15 15 14 13 12 13 13 14 14 15 15 14 12 9 9 10 9 10 12 10 10 9 8 9 12 12 11 9 7 6 6 6 6 6 6 5 3 4 6 4 1 1 2 1 1 3 4 3 3 3 7 6 4 3 3 6 6 3 6 5 4 4 5 10 14 9 13 19 21 24 26 28 30 30 30 29 29 28
19 20 20 19 19 19 19 19 18 17 17 16 16 15 14 14 15 14 15 15 15 14 11 9 9 11 9 10 13 11 10 10 10 10 12 13 12 11 9 7 7 7 7 7 7 6 4 4 5 3 1 0 1 1 2 5 4 2 2 2 4 7 5 1 1 2 6 3 3 4 4 7 8 17 17 10 15 19 22 26 28 30 31 31 31 31 31 30
20 20 20 20 20 20 20 20 20 19 18 18 17 16 15 15 16 16 15 16 16 13 11 10 10 11 9 11 12 12 11 10 11 11 12 13 13 12 11 9 8 8 8 8 8 7 5 4 4 1 1 1 1 1 3 5 4 1 1 2 3 3 4 4 0 5 5 4 5 6 3 9 8 13 15 14 18 21 24 28 30 32 33 33 34 33 33 32
21 21 21 21 21 21 21 20 20 20 20 19 18 17 17 17 17 17 16 16 14 11 11 11 11 9 9 13 13 12 12 11 12 13 13 14 13 13 11 10 9 9 9 9 9 7 5 4 3 1 2 1 1 1 3 5 4 3 2 3 3 0 5 8 3 7 4 3 5 5 3 10 10 8 11 15 19 23 26 28 31 33 34 36 36 36 36 34
21 21 22 22 21 21 21 22 21 21 21 20 20 19 18 18 19 18 16 15 12 12 12 11 10 8 7 10 11 10 11 11 12 13 14 14 14 13 12 11 10 10 10 9 9 6 4 3 2 2 2 1 2 4 3 4 4 4 1 3 3 1 4 7 3 3 3 2 3 4 3 7 8 4 6 14 21 25 25 26 31 35 36 37 37 37 37 35
22 22 22 22 22 22 22 22 22 22 22 21 22 21 19 20 20 17 14 14 14 14 12 9 8 7 9 11 10 10 11 11 12 13 15 15 15 14 13 12 11 10 9 8 7 5 3 1 1 0 2 3 3 4 3 4 4 4 2 2 4 3 3 4 5 2 2 3 4 5 5 11 12 6 6 13 20 25 25 27 32 36 36 37 38 38 38 37
24 23 23 22 22 22 22 22 22 23 22 22 22 23 22 21 17 14 14 16 15 11 8 8 5 3 8 11 10 9 9 10 12 14 15 16 16 15 14 12 10 10 7 5 5 4 3 1 1 0 3 4 3 5 2 4 3 4 3 3 4 3 4 5 5 3 2 1 5 4 6 14 18 14 13 17 20 26 29 31 33 34 34 36 37 39 40 40
26 25 24 23 23 23 23 22 22 23 23 23 22 23 21 18 14 12 11 11 8 5 3 6 6 3 6 8 8 10 10 9 11 14 16 16 15 14 13 11 10 8 3 1 3 2 1 1 2 0 2 3 3 6 7 8 7 5 5 5 4 5 6 6 6 4 1 2 7 7 9 13 18 17 14 17 22 28 31 30 29 29 30 34 37 40 42 43
29 28 26 25 24 24 24 23 22 22 23 23 23 22 16 12 9 6 7 9 9 9 10 12 13 15 17 15 13 12 12 11 11 14 16 16 15 12 11 9 7 5 2 2 2 1 2 1 3 5 7 7 8 8 6 5 6 4 4 4 5 6 7 6 4 4 1 1 8 9 9 13 17 18 16 16 18 23 24 23 26 28 31 35 38 42 44 46
32 31 29 27 26 25 25 24 22 21 22 22 21 18 11 7 5 6 10 14 14 15 19 21 21 23 24 21 18 13 11 12 13 14 15 15 14 9 7 6 3 2 2 2 2 1 3 3 7 9 10 7 6 6 6 5 5 3 4 4 5 5 8 8 4 4 1 3 6 7 7 12 16 17 18 14 12 17 21 22 27 31 32 35 38 43 44 43
34 33 30 29 28 26 25 24 22 21 20 19 17 13 9 8 7 8 11 12 17 19 20 22 24 27 27 25 23 17 12 11 13 16 16 15 15 10 6 4 4 3 1 3 2 3 2 6 10 9 6 5 4 5 7 5 4 3 3 2 5 4 5 7 4 5 2 3 5 8 8 13 17 16 20 19 15 19 24 27 32 33 32 36 38 41 41 39
34 33 31 30 29 27 26 25 23 21 19 17 15 11 9 8 8 10 9 8 16 19 17 19 22 25 26 25 25 20 16 12 12 15 17 16 15 11 8 6 4 2 1 4 5 2 2 7 8 6 8 8 5 4 7 5 2 3 3 2 5 3 1 5 4 5 3 2 4 8 10 13 14 14 18 19 16 20 26 29 35 33 32 36 38 39 40 40
32 32 30 30 29 27 25 24 23 20 18 15 13 11 8 7 7 10 10 5 8 12 13 16 17 19 21 19 18 17 16 15 10 10 15 18 15 9 8 6 4 2 4 6 8 6 7 6 4 7 6 6 4 3 6 4 3 3 5 6 6 5 5 6 3 5 5 3 2 5 11 11 7 9 11 8 5 11 18 22 29 31 32 34 33 35 39 41
29 30 28 28 28 26 24 24 22 20 18 14 12 9 6 6 6 9 8 3 4 7 8 11 11 13 14 13 13 11 10 12 13 10 11 18 17 8 4 6 5 4 5 5 5 5 9 4 6 6 2 4 6 4 5 7 3 4 5 9 9 8 7 5 4 6 5 4 4 4 6 9 2 4 9 4 2 6 8 12 22 25 26 29 32 36 37 38
26 28 26 24 25 24 22 20 19 17 14 10 9 7 5 4 4 8 6 2 3 5 4 5 5 6 8 8 8 8 3 6 12 13 12 17 19 10 3 4 3 3 5 5 3 4 4 1 4 5 4 4 5 5 6 7 5 3 4 6 6 4 1 2 4 4 2 3 4 4 1 9 4 3 9 7 5 10 8 9 17 21 21 26 33 36 35 35
23 25 24 20 21 21 19 17 17 15 10 8 7 6 4 2 2 6 6 3 4 4 4 5 6 6 7 7 12 10 2 2 5 11 15 16 17 13 6 4 2 2 4 5 1 3 2 3 4 4 5 4 5 5 6 8 7 3 4 4 6 5 4 3 2 0 4 2 4 2 4 8 9 6 7 6 6 12 12 12 15 18 22 27 32 34 34 36
21 22 21 18 18 18 18 18 18 15 11 8 5 5 3 1 1 3 3 3 4 3 4 4 5 7 7 10 15 9 1 3 4 7 14 15 15 11 6 7 6 4 4 6 5 4 3 4 4 5 4 3 6 5 7 10 4 5 5 5 6 5 5 4 4 2 2 3 4 5 6 4 10 6 2 1 4 9 13 14 13 14 21 26 29 31 32 35
18 19 20 17 15 16 17 18 17 15 13 10 7 5 3 3 2 3 3 4 3 2 2 4 5 6 6 9 12 8 1 2 1 6 12 12 13 8 3 6 7 4 2 3 6 5 2 3 5 7 5 5 5 2 5 8 3 4 6 5 5 5 4 4 3 1 2 3 7 7 8 4 8 4 3 3 3 8 10 12 11 13 19 21 22 25 28 31
17 18 20 17 13 14 16 16 16 15 13 10 8 6 4 5 4 2 4 5 3 1 3 5 5 5 7 6 5 6 3 2 1 7 8 6 9 6 3 3 4 4 0 3 3 5 1 2 2 3 4 5 5 3 2 4 4 6 6 4 5 5 4 4 1 3 2 6 9 7 12 8 6 3 5 4 4 7 8 7 8 11 17 19 19 21 23 27
17 16 18 15 12 13 14 14 15 15 13 11 9 9 8 4 4 3 7 4 2 1 3 3 3 5 8 5 2 3 2 2 3 8 5 2 4 3 4 3 2 3 3 5 4 5 3 1 2 3 4 5 7 5 3 4 4 5 4 4 4 4 3 5 4 4 0 7 6 3 8 8 7 6 5 5 7 6 7 6 7 8 14 17 16 17 19 22
17 14 15 14 12 13 13 14 14 15 15 13 12 12 8 1 2 5 4 1 1 4 3 3 2 3 5 2 2 4 2 2 4 6 4 3 3 4 4 5 5 1 3 5 4 5 3 5 3 1 4 6 6 4 3 4 3 4 4 4 3 3 3 4 3 1 3 8 3 1 4 5 11 11 8 10 10 8 8 9 10 11 15 17 15 15 17 20
16 13 16 16 13 13 14 15 14 16 16 16 15 10 7 2 6 5 4 3 3 2 2 2 1 3 5 3 2 3 2 3 4 4 3 3 3 5 6 5 6 3 3 4 1 3 4 5 1 2 3 7 9 5 3 2 2 5 5 4 3 2 0 3 4 2 5 7 3 3 3 4 9 8 11 16 15 14 14 15 17 19 21 19 16 14 16 20
15 13 17 19 15 13 15 15 15 15 16 19 15 8 4 7 6 5 8 8 3 2 2 3 3 3 3 3 4 4 3 4 4 5 3 3 2 5 6 6 6 2 2 2 1 2 3 7 4 5 2 8 10 5 5 5 4 5 5 5 5 5 4 5 4 4 7 6 3 3 2 4 4 4 6 10 11 14 16 18 21 24 22 18 15 15 17 22
14 14 19 21 18 14 14 17 17 15 19 21 12 4 6 9 3 4 7 6 2 0 1 2 4 4 2 3 3 4 5 4 3 5 4 4 4 5 5 7 8 5 4 3 2 3 3 8 6 1 1 7 7 3 5 7 2 2 3 5 3 4 5 3 3 4 1 5 4 3 4 6 3 5 7 4 6 10 10 13 19 21 18 13 14 18 21 24
13 15 18 19 18 13 12 18 19 16 20 19 7 5 11 7 4 5 5 5 5 4 4 1 3 4 4 3 3 4 3 2 2 3 4 4 4 5 4 5 9 11 9 6 3 2 2 6 3 2 1 3 3 2 2 2 3 2 3 4 4 4 5 2 3 1 4 3 6 2 6 9 3 5 7 3 5 8 6 10 15 15 12 10 16 22 24 26
15 18 21 23 19 12 12 19 19 17 18 14 6 9 8 4 7 7 5 6 5 6 7 3 3 6 6 4 4 6 4 2 3 3 4 3 3 7 6 4 8 15 16 10 3 3 3 4 3 2 1 2 1 1 1 2 3 5 3 5 3 2 4 3 1 3 3 3 6 4 9 13 8 6 2 3 6 8 7 10 10 8 8 13 21 25 25 26
19 23 26 27 22 14 14 17 19 18 14 8 10 12 4 4 9 8 8 7 4 5 7 6 6 6 7 6 4 6 6 4 5 4 4 4 5 6 8 5 8 15 21 15 5 3 3 3 4 2 2 2 2 1 0 2 2 4 3 2 3 3 2 2 2 2 2 3 6 8 11 13 9 6 5 6 9 8 9 10 8 7 9 17 25 27 26 26
20 22 24 26 24 19 18 19 21 19 11 7 12 12 4 4 6 7 14 11 3 5 6 7 7 3 4 7 4 5 8 7 7 5 4 5 5 5 9 8 8 10 16 16 8 2 3 3 4 0 2 1 2 2 5 3 1 3 0 2 2 2 4 3 3 3 3 3 6 9 12 12 6 6 8 10 10 10 9 9 9 10 15 23 28 27 27 28
21 17 17 22 19 19 21 21 21 17 9 8 11 7 1 1 5 12 21 16 4 4 5 5 5 4 4 6 4 4 6 6 7 5 4 5 4 4 8 9 5 4 6 8 5 1 3 3 4 1 2 1 4 5 8 9 7 4 3 2 1 1 2 1 1 3 4 4 4 4 10 16 6 7 9 10 9 11 11 9 9 11 19 27 28 27 28 30
24 13 11 15 14 21 27 21 16 11 5 7 8 4 1 3 5 11 20 19 10 5 4 4 6 7 5 5 4 3 5 4 6 6 4 5 5 5 10 14 11 8 5 3 2 4 3 3 5 3 2 5 6 3 3 7 8 7 8 7 7 6 4 1 5 3 3 4 5 4 8 18 6 7 7 7 7 9 11 11 9 11 21 27 26 27 28 29
25 12 11 15 16 27 31 16 10 8 5 8 9 6 5 5 4 6 13 16 11 6 3 4 7 8 6 5 4 5 6 4 6 7 5 7 10 8 10 18 19 17 11 4 3 4 4 3 4 6 7 7 4 1 2 2 1 2 5 5 7 7 7 6 8 5 3 2 2 4 5 17 7 7 6 6 7 9 11 11 10 13 22 24 23 26 28 29
28 18 15 18 22 34 30 9 9 7 5 12 13 11 10 6 2 5 9 12 9 5 5 6 7 9 7 4 5 5 7 6 7 8 5 5 11 12 12 21 22 15 8 3 1 2 3 2 4 6 6 3 3 3 3 3 3 2 6 5 7 8 9 8 6 3 3 4 3 4 6 17 7 5 4 4 4 7 9 11 12 14 20 22 23 26 27 29
29 21 20 23 28 36 26 7 8 9 8 11 13 14 14 9 7 8 7 9 10 6 7 9 6 6 6 4 6 8 8 7 8 8 8 7 7 10 16 26 23 12 7 7 8 9 6 2 3 3 6 5 4 3 2 2 1 4 5 4 7 11 8 2 1 2 3 7 8 5 12 18 6 4 4 2 3 6 8 12 16 16 19 23 24 25 26 28
20 13 18 30 41 41 28 16 10 8 11 14 13 14 13 10 14 18 13 12 12 6 3 7 5 5 6 5 5 8 8 9 9 5 7 8 3 2 14 28 27 16 11 11 14 17 9 3 6 7 9 10 10 7 4 3 3 3 4 5 10 14 13 6 3 5 8 9 10 9 19 18 12 8 4 2 4 7 9 12 16 19 22 23 24 24 26 29
14 8 9 21 38 40 34 29 17 6 8 13 9 9 13 12 12 16 16 14 14 10 4 5 4 5 6 7 7 11 11 11 9 4 4 7 3 2 7 20 25 17 9 8 16 16 5 2 9 13 14 14 15 12 5 6 5 6 9 12 14 15 15 12 8 8 10 9 9 19 22 16 22 26 15 7 8 10 11 12 13 19 25 25 26 27 28 29
13 10 9 11 19 23 24 24 19 9 5 8 6 6 14 16 8 7 14 15 16 16 9 7 8 7 8 12 12 12 12 9 8 10 12 10 5 3 2 8 14 11 3 4 12 10 2 5 15 19 20 18 18 16 7 9 8 11 12 15 17 16 16 14 14 17 14 9 13 23 20 15 26 32 22 15 16 14 15 15 14 19 25 27 28 29 28 29
16 14 20 21 12 8 14 20 20 16 10 10 9 6 9 14 12 10 12 10 11 17 12 8 13 18 18 17 12 9 9 8 9 15 18 15 7 1 1 2 4 6 2 1 5 5 2 9 15 16 18 18 19 19 10 7 8 9 10 16 18 16 18 18 21 27 22 14 17 24 21 21 29 28 20 19 17 14 18 23 20 20 24 25 26 26 27 29
20 12 18 27 17 11 20 26 23 19 17 14 11 9 12 17 19 14 7 4 6 14 16 13 18 24 24 17 10 8 9 10 14 17 15 12 8 4 3 3 2 3 4 2 3 3 3 8 13 13 14 17 20 20 11 7 10 10 12 20 18 15 18 22 26 30 24 19 23 28 27 29 30 23 18 22 22 17 22 29 25 22 23 23 24 26 28 30
29 21 19 23 18 17 22 23 16 12 15 15 11 12 16 19 22 15 8 9 9 8 14 21 23 18 14 13 12 14 17 19 21 18 10 7 6 4 5 7 3 2 3 4 2 3 5 7 9 8 10 16 20 16 10 11 13 13 18 25 22 16 17 23 26 23 17 18 26 28 26 27 27 21 17 22 26 22 22 27 28 29 29 26 26 28 29 31
44 39 29 18 10 14 18 14 11 10 10 12 13 16 17 20 25 19 8 12 17 12 13 21 24 14 8 12 17 22 28 28 23 20 12 8 9 9 7 8 7 5 4 5 3 3 5 5 3 2 7 15 15 9 7 8 5 10 21 31 28 20 19 23 21 15 15 20 23 22 19 21 24 19 15 18 20 18 18 22 26 32 33 28 28 30 32 34
49 42 33 21 10 12 15 10 9 11 9 12 18 20 19 21 23 17 7 11 23 28 23 19 17 12 7 12 23 33 39 36 31 31 25 14 11 13 11 10 10 9 7 5 4 4 5 4 4 4 9 13 7 2 6 5 1 10 20 25 24 21 22 22 19 18 22 21 17 16 18 22 21 16 16 19 18 16 18 22 26 30 31 29 30 34 36 36
Wind_Direction
5 8 11 13 15 14 14 13 12 15 18 16 13 12 11 12 13 12 13 18 18 12 10 9 12 105 111 105 106 104 102 91 84 92 95 76 61 53 46 43 38 30 23 14 11 6 359 358 343 332 321 296 57 37 64 33 26 48 96 86 139 180 198 193 177 192 172 188 203 187 182 166 167 177 169 165 178 175 174 189 201 204 218 231 216 198 188 187
355 358 1 5 7 10 10 7 5 6 10 11 9 7 7 8 9 9 8 10 16 14 7 1 351 274 216 122 119 111 106 99 100 117 109 81 62 58 52 50 42 33 26 17 15 9 1 355 350 347 326 161 56 49 80 30 37 75 110 80 241 199 211 205 175 193 186 172 192 192 192 191 201 180 169 170 181 171 174 197 206 207 209 209 198 186 186 189
344 347 349 354 356 1 2 0 357 355 357 360 1 1 359 360 3 5 4 6 11 15 10 359 348 303 258 216 158 136 130 132 146 135 115 95 68 67 61 58 44 33 27 18 16 8 2 357 357 356 344 118 54 76 83 27 36 97 96 81 245 218 239 253 211 204 208 176 181 190 199 204 221 186 178 183 178 188 203 200 196 202 199 193 190 186 187 191
335 339 342 345 346 349 352 353 349 345 346 346 348 351 352 351 354 359 360 2 6 10 13 3 348 324 276 237 214 195 188 224 205 174 141 124 74 74 71 66 43 29 22 17 16 7 3 359 357 356 51 98 44 81 77 21 28 199 106 145 231 193 230 258 243 217 214 198 185 191 190 213 217 190 188 174 154 233 229 214 212 217 209 196 192 190 191 194
330 334 337 339 340 342 344 344 343 340 338 338 339 339 343 345 345 351 354 357 2 4 5 4 352 329 303 251 234 230 229 335 199 183 170 172 90 76 74 68 41 26 16 11 11 6 5 6 7 18 56 63 30 62 46 14 44 65 106 221 213 156 195 255 226 211 217 206 185 183 188 216 196 191 201 186 185 238 236 231 228 229 223 211 204 197 194 195
323 327 332 335 338 340 341 343 342 339 336 335 334 332 334 337 338 342 347 349 354 356 355 358 356 336 311 271 247 240 228 290 212 199 195 195 149 75 89 83 40 22 11 8 4 6 10 12 22 48 62 48 23 61 17 2 38 50 334 288 195 174 230 251 204 209 220 200 188 195 211 207 180 211 219 204 221 237 241 249 236 229 223 218 211 200 197 196
315 321 325 330 335 338 341 343 343 342 340 336 333 330 327 330 333 334 338 342 344 349 349 348 353 344 313 287 261 247 243 262 244 209 202 201 200 223 222 202 43 13 7 0 349 5 12 12 27 58 84 67 40 98 2 356 56 103 89 319 187 200 244 229 203 215 224 218 220 213 209 201 191 222 226 218 235 240 240 251 243 229 214 209 208 202 201 199
308 313 319 324 330 335 337 340 342 342 343 340 337 332 326 325 329 329 331 335 336 342 343 341 347 345 321 289 268 264 261 261 239 209 206 208 208 229 245 232 235 350 354 347 343 6 11 12 24 41 83 95 134 138 4 356 31 91 129 254 194 218 236 210 211 225 230 232 234 216 202 211 212 220 235 235 244 242 238 247 246 224 208 205 207 205 203 201
302 307 312 318 323 328 332 334 336 337 339 342 341 336 328 323 324 326 325 329 331 335 339 336 338 341 325 287 275 278 272 253 232 219 214 216 219 229 241 238 237 298 334 335 335 0 12 15 16 11 36 139 120 70 31 18 334 78 180 265 234 236 232 217 226 231 234 235 226 207 212 231 222 231 264 250 247 240 235 240 236 216 206 205 205 205 204 202
301 305 309 313 317 322 325 328 330 330 334 337 341 341 332 323 321 322 320 324 325 327 334 330 331 337 319 289 271 269 283 264 241 233 223 223 227 232 239 238 244 272 317 325 317 332 13 15 5 3 43 129 87 45 61 81 294 310 303 282 259 256 255 241 237 235 236 237 222 207 220 242 203 192 265 250 236 231 228 225 221 211 207 206 205 205 205 206
304 307 309 312 314 317 319 323 325 326 329 331 336 339 333 324 319 317 317 319 320 323 327 323 325 328 313 286 247 240 286 283 260 245 232 230 231 235 243 242 251 266 290 310 310 289 347 7 358 1 25 32 354 335 117 60 320 314 316 289 279 286 271 245 240 239 231 239 230 214 231 246 142 191 251 247 226 223 220 214 211 208 208 208 205 205 206 209
301 304 307 310 312 315 317 319 321 323 326 328 331 334 333 324 317 315 314 314 315 316 318 316 320 324 310 278 257 262 283 279 274 258 237 235 234 237 245 250 259 265 278 296 305 289 282 338 349 356 348 271 328 16 58 2 337 320 25 313 297 345 344 245 255 236 202 234 235 197 270 253 186 229 248 248 225 215 211 210 208 206 207 207 206 207 209 210
295 299 302 305 308 311 314 317 319 320 323 326 327 330 330 324 317 314 311 310 309 308 310 304 310 321 302 274 273 279 280 272 271 259 241 238 237 240 247 254 262 260 271 286 299 296 272 305 334 343 16 133 18 44 307 341 352 307 56 46 316 354 357 240 42 180 179 224 206 136 286 262 216 233 242 237 217 204 201 206 207 207 207 206 207 209 211 212
289 293 296 300 304 307 310 313 315 317 321 323 324 326 327 323 315 312 310 305 302 299 299 292 300 313 286 270 284 281 271 268 264 253 242 240 238 242 247 255 263 260 268 281 298 296 267 297 323 329 100 89 110 201 318 352 20 323 349 41 10 350 291 283 278 150 162 222 190 134 263 266 254 244 240 231 218 206 203 206 208 209 208 208 209 211 214 214
284 288 292 296 300 303 306 309 311 313 316 319 321 323 325 321 313 312 309 301 296 290 291 290 290 297 278 274 281 274 267 258 252 248 241 238 238 240 245 255 261 264 271 275 289 291 270 292 312 93 103 102 79 64 354 355 10 17 341 308 344 329 271 303 282 172 182 219 177 146 240 269 278 268 243 225 215 210 210 211 212 213 213 212 212 213 215 216
279 283 286 290 295 298 301 304 307 309 312 315 317 319 322 320 314 312 306 297 290 283 285 286 282 278 273 278 276 268 262 250 245 244 239 237 237 239 245 256 262 269 275 275 283 279 265 300 355 71 85 131 97 78 40 4 342 6 47 255 277 258 287 319 318 200 201 159 182 201 235 275 278 269 235 214 211 213 214 216 217 218 218 215 215 215 215 215
273 276 279 283 287 291 295 298 301 304 308 311 313 315 319 320 316 311 300 292 288 285 282 273 272 271 262 268 269 264 260 250 244 240 237 236 237 241 248 256 261 268 272 271 276 263 248 288 129 88 52 70 80 84 42 347 311 325 10 260 250 239 262 299 314 319 124 156 220 227 232 259 263 260 235 220 216 215 217 221 223 223 220 218 217 216 216 215
268 270 273 277 280 284 288 292 296 300 304 309 311 314 319 321 317 309 298 292 286 282 273 248 238 276 267 257 250 256 263 253 244 237 235 235 237 242 250 257 262 267 274 268 259 232 243 313 117 0 20 18 37 92 123 243 220 253 257 253 277 268 245 251 274 307 68 212 235 223 242 257 265 268 250 238 226 219 223 227 228 227 222 220 219 217 218 217
265 266 268 271 274 278 281 286 292 297 301 304 307 312 318 320 316 309 303 299 277 247 246 228 205 210 267 265 253 256 263 256 245 237 235 235 237 243 250 256 258 257 255 235 239 195 202 5 82 30 306 270 222 155 191 210 185 203 209 193 233 260 261 239 236 264 18 290 259 236 240 256 268 272 257 240 226 223 230 232 231 230 225 222 221 221 220 220
265 265 266 268 270 273 277 281 287 292 298 302 308 316 324 329 325 316 309 306 273 249 264 264 256 257 263 272 271 261 258 257 251 241 236 233 234 243 249 249 248 243 200 171 217 110 85 261 228 223 230 231 222 195 186 179 151 146 152 183 225 238 267 262 240 281 44 227 267 250 241 255 264 269 269 251 226 224 231 232 232 230 226 224 223 224 224 223
265 265 266 267 267 269 272 277 282 287 294 302 313 324 337 340 326 309 309 304 280 263 269 272 270 265 262 264 265 261 257 258 254 241 235 231 227 231 237 228 203 219 240 151 160 39 75 223 235 224 222 217 203 172 138 130 128 126 170 218 258 235 258 271 264 311 354 179 266 277 262 261 258 265 272 258 221 226 228 225 235 232 227 228 226 227 227 225
265 264 265 266 265 267 269 273 277 282 289 298 310 321 327 318 305 306 311 301 286 280 274 270 266 263 261 257 255 254 251 257 255 240 232 226 221 218 211 182 157 201 262 106 120 1 6 247 243 220 184 117 96 128 126 128 134 132 155 193 268 249 273 292 315 351 358 179 269 297 284 268 262 262 267 257 236 243 241 234 243 239 229 230 230 230 229 224
268 266 265 265 264 265 266 269 272 277 284 292 301 309 311 309 306 311 309 288 289 291 277 265 262 261 260 254 251 248 241 246 256 246 234 222 215 211 198 164 156 189 173 160 175 185 246 254 243 181 142 113 84 113 117 106 137 164 157 186 256 265 296 283 309 341 310 228 272 290 282 269 261 256 262 263 251 251 252 248 251 247 238 238 238 236 231 225
276 272 268 266 265 265 264 266 268 273 278 284 293 296 297 303 308 316 313 280 282 291 272 259 255 256 256 252 248 241 234 237 247 248 229 213 201 199 202 173 148 202 227 192 177 198 238 242 152 118 130 141 135 144 140 151 242 247 204 207 242 251 234 239 294 329 315 319 320 306 293 275 249 239 255 279 275 253 253 253 254 249 244 246 245 242 237 231
283 280 275 269 266 266 264 265 266 268 272 276 280 279 283 295 312 327 324 299 279 285 271 255 250 252 248 243 237 220 221 236 238 238 221 205 194 182 191 174 168 219 218 166 155 229 258 232 145 130 119 145 158 194 191 177 207 295 235 214 226 236 245 270 336 346 347 332 330 15 325 287 258 222 254 283 339 271 251 249 257 253 245 243 243 242 239 234
285 283 282 275 268 265 263 262 262 263 265 265 263 260 269 282 325 338 339 19 294 270 241 217 221 224 218 219 202 177 195 255 230 222 210 201 197 184 163 165 171 216 180 138 147 237 261 107 121 147 147 147 175 233 232 171 143 295 255 202 201 187 195 300 4 356 303 263 301 57 40 276 275 198 250 263 275 278 265 248 260 259 249 242 244 244 238 234
285 285 286 280 269 263 257 251 252 253 248 248 246 238 254 263 4 357 2 356 279 229 169 176 182 185 198 190 164 154 199 235 186 201 198 196 198 191 198 195 140 212 174 131 217 243 158 92 64 104 118 139 187 243 226 154 129 241 237 127 122 119 149 183 101 331 248 269 299 182 165 272 276 241 254 253 252 277 275 266 266 259 251 248 249 247 240 236
285 285 288 282 271 261 252 245 245 243 234 229 217 206 217 199 207 31 47 291 269 152 140 173 166 180 191 180 176 173 185 153 141 194 191 190 195 190 217 218 176 193 181 145 216 259 130 161 185 142 120 182 205 229 195 158 144 238 204 123 113 120 148 149 122 210 280 359 293 215 152 274 273 252 315 356 217 257 264 261 264 258 252 251 252 250 244 240
285 285 289 285 275 260 249 242 236 233 229 217 203 211 200 162 166 64 98 246 266 115 149 171 160 184 170 160 192 213 224 164 151 186 179 182 194 187 218 214 168 159 196 167 220 263 87 170 195 152 154 217 213 235 184 164 178 194 149 107 75 73 81 87 107 161 31 327 267 219 167 232 274 230 114 76 206 237 249 253 260 263 260 256 257 256 249 242
285 280 284 287 279 256 244 236 226 224 220 208 205 204 169 147 128 103 221 239 260 142 136 158 174 173 148 138 216 234 216 247 134 151 163 173 189 181 134 166 126 119 328 339 267 263 12 97 189 171 185 186 138 84 73 116 137 138 112 66 34 36 48 51 53 69 43 276 271 222 180 194 282 249 164 175 210 208 216 242 262 269 266 263 264 262 254 244
287 276 279 284 274 250 238 228 218 213 206 197 190 172 154 132 106 179 223 236 273 215 132 169 199 148 152 156 206 208 190 256 183 157 166 160 170 153 117 141 103 83 349 318 280 298 343 142 230 227 183 137 101 74 40 62 110 115 87 59 17 342 12 22 355 43 78 255 278 245 183 188 245 249 196 232 258 215 192 216 237 252 264 269 271 267 259 248
289 280 283 283 265 245 229 218 209 202 198 187 177 164 145 143 233 199 219 313 258 214 165 180 209 159 170 163 180 183 164 224 191 164 168 159 169 188 190 190 167 105 303 252 262 332 302 232 230 203 186 163 120 77 15 0 57 100 95 83 46 327 350 348 310 58 224 249 269 145 171 214 247 246 227 240 256 236 210 214 226 246 266 274 277 271 261 248
288 281 282 280 266 245 223 211 198 192 192 181 173 154 116 216 234 181 183 231 225 212 141 122 92 136 144 137 227 196 153 215 191 167 172 142 175 230 245 221 172 169 251 209 275 339 290 290 145 150 237 189 164 154 212 260 136 148 146 131 142 144 83 272 271 277 268 270 260 163 157 259 270 262 228 226 234 233 229 232 241 256 266 273 277 272 261 248
279 266 270 273 267 245 220 204 189 182 184 178 168 132 119 230 228 153 190 221 236 16 50 86 81 95 144 185 237 194 175 232 175 152 179 136 166 236 241 227 195 151 109 146 176 181 247 290 212 179 221 178 181 195 169 142 143 175 154 138 158 153 173 225 231 242 273 294 264 194 180 237 261 289 224 215 233 240 238 240 248 258 264 269 270 262 254 246
268 250 258 267 260 241 218 201 187 177 177 174 160 136 204 221 197 161 203 210 219 351 29 39 89 105 237 259 270 224 208 236 151 134 182 176 186 212 201 204 196 159 134 173 226 163 217 267 245 203 89 158 180 206 121 112 133 203 124 119 179 182 169 208 215 197 257 318 279 205 219 231 221 271 251 221 253 250 244 246 247 255 263 261 256 252 248 243
260 248 252 260 253 234 216 202 188 179 179 172 157 214 219 217 170 182 194 168 179 157 114 16 95 131 250 269 264 239 203 216 153 141 205 209 221 217 198 206 191 179 179 178 192 166 204 272 281 38 3 162 171 194 126 137 184 167 139 172 211 182 131 133 264 22 65 294 274 239 254 273 304 278 256 198 243 250 246 250 247 251 255 243 246 248 244 240
248 251 249 252 253 236 212 202 189 185 187 179 200 222 216 212 186 183 169 152 159 140 138 208 202 175 217 237 224 206 173 199 181 166 207 218 235 204 195 238 196 188 199 194 199 213 193 263 260 127 213 243 134 128 46 35 130 131 184 209 191 124 93 105 243 345 33 251 273 275 264 277 285 281 286 140 221 249 246 242 244 247 237 232 243 247 243 240
241 250 247 248 255 244 215 200 189 189 187 186 232 235 217 199 199 177 155 154 137 133 158 211 212 182 195 210 221 187 170 189 181 178 200 210 246 189 158 209 203 194 205 198 207 249 165 242 270 124 193 257 42 116 147 0 95 135 199 217 120 140 166 111 149 240 252 237 273 280 279 276 252 239 260 219 209 229 241 238 236 234 223 229 240 244 241 237
238 245 248 249 251 239 216 195 188 191 187 193 230 237 220 204 221 189 175 173 150 158 185 219 216 196 184 185 189 181 184 192 177 181 202 196 236 196 160 193 203 197 202 189 193 237 132 206 260 294 247 267 55 184 191 200 54 74 309 322 33 155 173 163 152 183 193 207 266 287 293 280 226 186 243 237 201 204 223 230 230 225 221 227 236 241 238 233
225 232 252 252 239 217 203 193 191 191 193 214 224 230 207 209 238 215 201 198 187 183 204 221 208 217 211 191 197 189 193 202 179 185 224 201 220 232 196 191 166 163 189 172 181 194 107 196 232 283 333 221 192 210 196 182 163 148 191 211 231 154 113 213 222 141 147 189 238 273 281 274 239 158 220 228 199 200 204 213 222 220 225 231 235 240 239 235
212 221 241 231 206 188 186 188 200 202 210 236 237 241 251 230 227 223 219 219 225 225 203 179 195 211 203 199 218 183 174 202 190 195 237 214 219 246 208 189 160 138 131 104 180 199 154 190 208 202 242 219 216 233 189 182 171 176 195 193 191 171 119 211 247 214 160 193 208 180 263 274 261 139 200 211 190 200 199 209 222 217 224 232 236 239 240 237
206 221 217 198 183 177 176 183 216 218 228 232 234 246 233 227 221 218 223 223 228 243 227 202 210 211 201 194 192 170 172 197 201 205 236 222 217 227 200 183 164 148 145 146 199 187 123 120 207 231 235 229 239 14 130 187 143 187 218 194 179 170 156 194 229 225 171 209 214 111 263 271 257 138 181 190 183 210 212 210 215 217 225 232 237 240 240 238
206 215 202 191 187 176 170 190 229 209 240 234 235 251 243 240 239 200 209 215 214 215 221 229 213 210 225 201 169 184 192 204 207 198 216 235 226 228 198 172 161 151 147 148 151 137 104 120 212 251 278 314 350 28 66 52 57 251 243 190 174 198 198 206 221 189 159 211 179 97 258 261 257 122 173 194 196 234 229 214 212 221 230 236 239 240 240 240
211 211 192 184 185 177 172 203 216 202 235 230 229 240 237 242 243 222 204 201 203 197 217 234 218 213 236 190 185 211 195 204 226 203 207 234 236 227 193 171 165 169 184 190 175 166 171 173 169 238 290 305 310 326 0 358 171 222 241 185 193 218 211 208 326 156 219 210 160 150 250 252 255 94 119 140 250 261 248 225 222 229 235 239 242 241 241 240
209 206 190 183 184 183 192 211 202 200 221 219 228 232 229 245 241 231 227 216 215 206 215 241 218 203 222 192 213 234 204 212 238 217 213 232 254 232 186 179 180 189 209 207 173 162 174 193 168 200 237 240 247 250 231 213 188 213 246 200 206 215 203 204 233 211 227 213 163 200 243 255 275 266 202 145 260 260 255 238 231 237 242 244 244 244 244 240
195 189 182 183 188 196 210 217 212 215 211 210 229 229 221 238 245 233 227 226 231 227 234 256 211 190 213 203 222 240 227 228 241 241 237 230 241 337 193 192 196 200 219 205 167 157 158 205 195 214 227 227 241 246 192 127 147 201 218 213 214 214 204 211 233 227 226 225 217 232 241 262 276 266 257 254 254 253 258 253 239 238 244 247 248 249 248 243
193 197 185 173 192 211 224 223 219 227 196 177 192 215 218 227 245 232 214 213 218 213 222 255 222 204 218 210 217 234 228 227 236 242 247 238 233 316 266 212 217 221 243 187 171 161 126 225 217 225 231 233 247 251 200 140 187 211 209 217 221 214 203 207 228 233 224 219 241 246 244 252 260 261 264 264 260 260 264 264 257 250 251 251 251 250 245 240
202 214 203 189 181 201 218 216 211 210 198 183 195 215 220 222 227 220 208 205 203 195 201 238 225 220 224 213 212 231 222 221 231 233 239 240 228 221 282 248 232 224 209 145 195 172 159 232 231 231 238 242 250 251 223 175 221 228 213 224 224 211 206 209 225 233 227 220 245 253 250 248 252 258 263 262 259 258 266 273 275 267 260 254 248 244 239 235
208 220 211 202 199 197 206 210 206 203 206 205 207 218 225 228 229 220 184 165 209 198 197 220 226 223 226 220 214 226 219 220 232 231 231 233 218 178 208 248 239 197 177 169 233 193 169 240 242 238 248 250 248 250 236 213 244 251 241 241 232 209 209 216 227 234 231 231 246 254 255 255 257 258 260 264 266 266 271 278 278 268 259 252 244 239 237 236
213 215 206 200 209 215 212 211 203 199 209 209 210 221 225 232 235 228 183 179 210 203 197 221 233 225 215 215 217 230 230 226 234 237 219 203 209 189 203 223 203 148 199 200 225 211 201 233 242 240 253 254 250 250 232 221 239 248 254 255 244 221 219 228 234 237 237 239 245 252 259 262 262 261 260 267 273 274 274 274 271 266 261 253 244 241 239 240
222 222 215 204 211 213 211 211 197 198 212 205 211 222 222 229 232 230 219 206 214 217 200 216 234 233 199 205 216 229 234 231 237 246 230 193 205 208 207 207 177 153 203 204 176 192 203 223 242 212 242 252 255 247 211 206 232 250 254 254 247 232 229 237 240 234 228 236 245 251 256 258 261 267 268 266 267 266 265 264 264 265 263 252 243 243 244 243
227 231 225 219 222 201 201 212 199 201 214 203 209 219 218 225 229 226 235 225 218 224 221 211 223 230 211 213 220 228 234 236 242 249 248 241 230 224 229 226 201 188 186 180 180 182 180 203 217 200 234 253 258 162 145 133 180 256 251 247 242 237 237 243 250 243 230 228 236 244 246 250 260 272 273 269 263 255 254 257 258 261 261 253 246 245 246 247